NOZ608 ENGM-ENBR

Flight info

Callsign NOZ608
Flight time 0h 41m
Altitude 28000
Route ATLAP DCT AGEKU DCT PESUR
Aircraft B738/M-SADE3GHIJ1LRWXY/LB1

Departure

Time 2026-05-01 14:20
Airport Oslo-Gardermoen International Airport (ENGM)

Arrival

Time 2026-05-01 15:01
Airport Bergen Airport, Flesland (ENBR)
Time Latitude Longitude Altitude Speed Heading
2026-05-01 13:51 60.19531 11.09652 690 ft 0 kts 196°
2026-05-01 14:11 60.19534 11.09654 690 ft 3 kts 196°
2026-05-01 14:11 60.19580 11.09681 690 ft 0 kts 196°
2026-05-01 14:13 60.19579 11.09666 690 ft 2 kts 274°
2026-05-01 14:14 60.19611 11.09635 684 ft 11 kts 341°
2026-05-01 14:14 60.19663 11.09510 688 ft 13 kts 285°
2026-05-01 14:14 60.19687 11.09341 688 ft 12 kts 286°
2026-05-01 14:14 60.19711 11.09175 685 ft 12 kts 285°
2026-05-01 14:15 60.19735 11.09011 684 ft 13 kts 286°
2026-05-01 14:15 60.19766 11.08796 684 ft 18 kts 289°
2026-05-01 14:15 60.19868 11.08715 681 ft 18 kts 14°
2026-05-01 14:15 60.19988 11.08794 677 ft 18 kts 17°
2026-05-01 14:16 60.20114 11.08867 682 ft 19 kts 15°
2026-05-01 14:16 60.20237 11.08936 680 ft 18 kts 16°
2026-05-01 14:16 60.20356 11.09006 681 ft 17 kts 15°
2026-05-01 14:16 60.20470 11.09072 680 ft 15 kts 16°
2026-05-01 14:17 60.20568 11.09128 682 ft 14 kts 15°
2026-05-01 14:17 60.20641 11.09087 681 ft 12 kts 288°
2026-05-01 14:17 60.20661 11.08949 680 ft 10 kts 286°
2026-05-01 14:17 60.20669 11.08897 683 ft 0 kts 286°
2026-05-01 14:18 60.20669 11.08896 683 ft 1 kts 286°
2026-05-01 14:18 60.20684 11.08785 682 ft 13 kts 285°
2026-05-01 14:18 60.20697 11.08669 681 ft 11 kts 267°
2026-05-01 14:19 60.20665 11.08624 682 ft 0 kts 194°
2026-05-01 14:19 60.20596 11.08584 680 ft 36 kts 196°
2026-05-01 14:19 60.20119 11.08305 682 ft 104 kts 196°
2026-05-01 14:20 60.19260 11.07816 805 ft 143 kts 197°
2026-05-01 14:20 60.17311 11.06646 2159 ft 151 kts 201°
2026-05-01 14:20 60.16437 11.05270 2498 ft 175 kts 229°
2026-05-01 14:21 60.15794 11.02974 2725 ft 202 kts 244°
2026-05-01 14:21 60.15208 11.00264 2972 ft 220 kts 244°
2026-05-01 14:21 60.14567 10.97341 3172 ft 236 kts 244°
2026-05-01 14:22 60.13939 10.90804 4709 ft 240 kts 266°
2026-05-01 14:22 60.13850 10.87440 5484 ft 242 kts 266°
2026-05-01 14:22 60.13828 10.84041 6276 ft 245 kts 270°
2026-05-01 14:22 60.13868 10.80656 7087 ft 246 kts 271°
2026-05-01 14:23 60.13918 10.77219 7909 ft 247 kts 270°
2026-05-01 14:23 60.13965 10.73729 8651 ft 252 kts 270°
2026-05-01 14:23 60.14010 10.70232 9619 ft 250 kts 269°
2026-05-01 14:23 60.14050 10.66751 10487 ft 251 kts 269°
2026-05-01 14:24 60.14087 10.63095 10761 ft 275 kts 269°
2026-05-01 14:24 60.14125 10.59091 10974 ft 298 kts 269°
2026-05-01 14:24 60.14164 10.54864 11557 ft 307 kts 269°
2026-05-01 14:24 60.14202 10.50565 12337 ft 309 kts 269°
2026-05-01 14:25 60.14239 10.46244 13158 ft 311 kts 269°
2026-05-01 14:25 60.14274 10.41878 13981 ft 315 kts 269°
2026-05-01 14:25 60.14307 10.37462 14720 ft 318 kts 269°
2026-05-01 14:25 60.14339 10.32993 15477 ft 323 kts 269°
2026-05-01 14:26 60.14370 10.28464 16213 ft 327 kts 269°
2026-05-01 14:26 60.14427 10.19225 17667 ft 335 kts 269°
2026-05-01 14:26 60.14454 10.14518 18340 ft 341 kts 269°
2026-05-01 14:27 60.14479 10.09728 18927 ft 345 kts 269°
2026-05-01 14:27 60.14503 10.04900 19610 ft 347 kts 269°
2026-05-01 14:27 60.14526 10.00048 20254 ft 350 kts 269°
2026-05-01 14:28 60.14567 9.90157 21464 ft 357 kts 269°
2026-05-01 14:28 60.14585 9.85181 22256 ft 355 kts 269°
2026-05-01 14:28 60.14606 9.80263 23204 ft 349 kts 270°
2026-05-01 14:28 60.14732 9.75416 24008 ft 347 kts 272°
2026-05-01 14:29 60.14928 9.70586 24656 ft 347 kts 272°
2026-05-01 14:29 60.15142 9.65785 25315 ft 344 kts 272°
2026-05-01 14:30 60.15759 9.51594 27295 ft 338 kts 272°
2026-05-01 14:30 60.15953 9.46882 27895 ft 338 kts 272°
2026-05-01 14:30 60.16142 9.42162 28134 ft 341 kts 272°
2026-05-01 14:31 60.16513 9.32739 28170 ft 338 kts 271°
2026-05-01 14:31 60.16871 9.23410 28172 ft 336 kts 271°
2026-05-01 14:32 60.17166 9.15570 28173 ft 336 kts 271°
2026-05-01 14:32 60.17567 9.04709 28181 ft 335 kts 271°
2026-05-01 14:33 60.17905 8.95360 28174 ft 336 kts 271°
2026-05-01 14:33 60.18183 8.87507 28183 ft 337 kts 271°
2026-05-01 14:34 60.18510 8.78133 28200 ft 336 kts 271°
2026-05-01 14:34 60.18831 8.68758 28201 ft 336 kts 271°
2026-05-01 14:35 60.19142 8.59434 28200 ft 337 kts 270°
2026-05-01 14:35 60.19451 8.50007 28210 ft 338 kts 270°
2026-05-01 14:36 60.19755 8.40574 28208 ft 339 kts 270°
2026-05-01 14:36 60.20051 8.31118 28184 ft 339 kts 270°
2026-05-01 14:37 60.20339 8.21709 27909 ft 332 kts 270°
2026-05-01 14:37 60.20479 8.17111 27557 ft 329 kts 270°
2026-05-01 14:37 60.20616 8.12546 27217 ft 325 kts 270°
2026-05-01 14:37 60.20749 8.08032 26844 ft 322 kts 270°
2026-05-01 14:38 60.20880 8.03559 26471 ft 320 kts 270°
2026-05-01 14:38 60.21008 7.99111 26121 ft 317 kts 269°
2026-05-01 14:38 60.21134 7.94695 25751 ft 316 kts 269°
2026-05-01 14:38 60.21258 7.90297 25383 ft 314 kts 269°
2026-05-01 14:39 60.21379 7.85930 25021 ft 312 kts 269°
2026-05-01 14:39 60.21499 7.81591 24661 ft 310 kts 269°
2026-05-01 14:39 60.21617 7.77269 24305 ft 309 kts 269°
2026-05-01 14:39 60.21733 7.72958 23927 ft 308 kts 269°
2026-05-01 14:40 60.21846 7.68665 23533 ft 307 kts 269°
2026-05-01 14:40 60.21959 7.64389 23131 ft 305 kts 269°
2026-05-01 14:40 60.22068 7.60167 22753 ft 303 kts 269°
2026-05-01 14:40 60.22179 7.55953 22395 ft 300 kts 269°
2026-05-01 14:41 60.22287 7.51775 22029 ft 298 kts 269°
2026-05-01 14:41 60.22393 7.47634 21684 ft 295 kts 269°
2026-05-01 14:41 60.22495 7.43528 21339 ft 293 kts 269°
2026-05-01 14:41 60.22596 7.39445 20999 ft 291 kts 269°
2026-05-01 14:42 60.22695 7.35391 20680 ft 289 kts 269°
2026-05-01 14:42 60.22791 7.31366 20345 ft 287 kts 269°
2026-05-01 14:42 60.22884 7.27365 19998 ft 286 kts 269°
2026-05-01 14:42 60.22976 7.23384 19662 ft 284 kts 269°
2026-05-01 14:43 60.23066 7.19423 19331 ft 283 kts 269°
2026-05-01 14:43 60.23153 7.15479 18988 ft 282 kts 269°
2026-05-01 14:43 60.23240 7.11555 18656 ft 280 kts 269°
2026-05-01 14:43 60.23325 7.07638 18299 ft 279 kts 269°
2026-05-01 14:44 60.23411 7.03741 17928 ft 278 kts 269°
2026-05-01 14:44 60.23572 6.96029 17220 ft 275 kts 269°
2026-05-01 14:44 60.23648 6.92208 16913 ft 272 kts 269°
2026-05-01 14:45 60.23724 6.88421 16588 ft 269 kts 269°
2026-05-01 14:45 60.23875 6.80974 15954 ft 264 kts 269°
2026-05-01 14:45 60.23948 6.77295 15648 ft 262 kts 268°
2026-05-01 14:46 60.24021 6.73647 15347 ft 260 kts 268°
2026-05-01 14:46 60.24160 6.66399 14718 ft 258 kts 268°
2026-05-01 14:46 60.24227 6.62838 14432 ft 259 kts 268°
2026-05-01 14:47 60.24355 6.59206 14092 ft 263 kts 276°
2026-05-01 14:47 60.24930 6.55676 13836 ft 269 kts 287°
2026-05-01 14:47 60.25743 6.52258 13554 ft 271 kts 289°
2026-05-01 14:48 60.27458 6.45461 13055 ft 274 kts 290°
2026-05-01 14:48 60.28319 6.42019 12807 ft 276 kts 289°
2026-05-01 14:48 60.30037 6.35074 12288 ft 274 kts 289°
2026-05-01 14:49 60.31717 6.28217 11669 ft 271 kts 289°
2026-05-01 14:49 60.33371 6.21430 11014 ft 268 kts 289°
2026-05-01 14:50 60.34722 6.15841 10464 ft 265 kts 288°
2026-05-01 14:50 60.36280 6.08178 9897 ft 246 kts 278°
2026-05-01 14:51 60.36716 6.04856 9579 ft 244 kts 278°
2026-05-01 14:51 60.37572 5.98241 8984 ft 242 kts 278°
2026-05-01 14:52 60.38433 5.91740 8427 ft 237 kts 278°
2026-05-01 14:52 60.38864 5.88519 8125 ft 237 kts 278°
2026-05-01 14:52 60.39741 5.82035 7488 ft 241 kts 279°
2026-05-01 14:53 60.40185 5.78771 7124 ft 243 kts 279°
2026-05-01 14:53 60.40628 5.75479 6856 ft 242 kts 278°
2026-05-01 14:53 60.41074 5.72188 6551 ft 243 kts 279°
2026-05-01 14:53 60.41517 5.68889 6240 ft 243 kts 278°
2026-05-01 14:54 60.41945 5.65590 5934 ft 241 kts 274°
2026-05-01 14:54 60.42039 5.62248 5639 ft 237 kts 264°
2026-05-01 14:54 60.42044 5.58913 5300 ft 237 kts 264°
2026-05-01 14:54 60.42095 5.55652 4881 ft 223 kts 265°
2026-05-01 14:55 60.42112 5.52666 4695 ft 208 kts 262°
2026-05-01 14:55 60.42115 5.49795 4367 ft 196 kts 260°
2026-05-01 14:55 60.42135 5.47150 4185 ft 183 kts 262°
2026-05-01 14:55 60.42125 5.44600 3916 ft 177 kts 253°
2026-05-01 14:56 60.41902 5.42194 3663 ft 175 kts 252°
2026-05-01 14:56 60.41704 5.39799 3568 ft 175 kts 252°
2026-05-01 14:56 60.41504 5.37338 3356 ft 180 kts 252°
2026-05-01 14:56 60.41298 5.34839 3124 ft 179 kts 251°
2026-05-01 14:57 60.41093 5.32343 2912 ft 182 kts 251°
2026-05-01 14:57 60.40695 5.27400 2452 ft 169 kts 253°
2026-05-01 14:57 60.40478 5.25172 2243 ft 153 kts 242°
2026-05-01 14:58 60.40054 5.23302 2079 ft 141 kts 230°
2026-05-01 14:58 60.39453 5.21782 1930 ft 137 kts 219°
2026-05-01 14:58 60.38699 5.20608 1772 ft 137 kts 208°
2026-05-01 14:58 60.37828 5.19824 1633 ft 137 kts 197°
2026-05-01 14:59 60.36890 5.19478 1454 ft 137 kts 184°
2026-05-01 14:59 60.35952 5.19570 1287 ft 132 kts 175°
2026-05-01 14:59 60.35084 5.19851 1120 ft 125 kts 173°
2026-05-01 14:59 60.34225 5.20141 966 ft 124 kts 172°
2026-05-01 15:00 60.32499 5.20731 655 ft 129 kts 171°
2026-05-01 15:00 60.31625 5.21050 428 ft 126 kts 172°
2026-05-01 15:00 60.30833 5.21309 282 ft 125 kts 171°
2026-05-01 15:01 60.29980 5.21601 164 ft 122 kts 172°
2026-05-01 15:01 60.29247 5.21845 157 ft 88 kts 171°
2026-05-01 15:01 60.28780 5.22002 162 ft 46 kts 171°
2026-05-01 15:01 60.28669 5.22176 160 ft 18 kts 79°
2026-05-01 15:02 60.28686 5.22406 168 ft 15 kts 91°
2026-05-01 15:02 60.28678 5.22476 170 ft 15 kts 106°
2026-05-01 15:02 60.28672 5.22731 171 ft 9 kts 126°
2026-05-01 15:02 60.28655 5.22834 172 ft 8 kts 83°
2026-05-01 15:03 60.28659 5.22893 175 ft 2 kts 82°
2026-05-01 15:03 60.28661 5.22916 175 ft 2 kts 81°
2026-05-01 15:03 60.28662 5.22927 175 ft 0 kts 82°